• In Portugal
  • List of Countries
  • For 7 days
  • Water Temperature
  • Satellite Maps
  • Weather Map
  • Weather Widgets
  • user-avatar
    Login

    Hourly Weather Ankara

    Today, 21 June, Thursday

    Time Temperature Precipitation Wind Pressure Humidity
    00:00 +19°C° 0.1 mm 2 mps 686 mmHg 70%
    01:00 +19°C° 0.1 mm 2 mps 686 mmHg 72%
    02:00 +19°C° 0.1 mm 2 mps 686 mmHg 74%
    03:00 +18°C° 0.1 mm 2 mps 686 mmHg 76%
    04:00 +18°C° 0.1 mm 2 mps 686 mmHg 78%
    05:00 +19°C° 0.1 mm 1 mps 686 mmHg 80%
    06:00 +20°C° 0.2 mm 1 mps 686 mmHg 73%
    07:00 +21°C° 0.2 mm 2 mps 686 mmHg 67%
    08:00 +23°C° 0.2 mm 2 mps 686 mmHg 60%
    09:00 +24°C° 0.4 mm 1 mps 686 mmHg 55%
    10:00 +25°C° 0.4 mm 1 mps 686 mmHg 51%
    11:00 +26°C° 0.4 mm 1 mps 686 mmHg 46%
    12:00 +27°C° 0.5 mm 1 mps 685 mmHg 45%
    13:00 +27°C° 0.5 mm 1 mps 685 mmHg 44%
    14:00 +28°C° 0.5 mm 1 mps 685 mmHg 42%
    15:00 +27°C° 0.4 mm 1 mps 685 mmHg 44%
    16:00 +27°C° 0.4 mm 2 mps 684 mmHg 46%
    17:00 +27°C° 0.4 mm 2 mps 684 mmHg 48%
    18:00 +26°C° 0.4 mm 2 mps 684 mmHg 52%
    19:00 +24°C° 0.4 mm 2 mps 684 mmHg 57%
    20:00 +23°C° 0.4 mm 2 mps 683 mmHg 62%
    21:00 +21°C° 1.6 mm 2 mps 684 mmHg 66%
    22:00 +21°C° 1.6 mm 2 mps 684 mmHg 71%
    23:00 +20°C° 1.6 mm 2 mps 684 mmHg 75%

    Tomorrow, 22 June, Friday

    Time Temperature Precipitation Wind Pressure Humidity
    00:00 +20°C° 0.2 mm 2 mps 684 mmHg 76%
    01:00 +20°C° 0.2 mm 1 mps 683 mmHg 77%
    02:00 +20°C° 0.2 mm 1 mps 683 mmHg 78%
    03:00 +20°C° 0 mm 1 mps 683 mmHg 79%
    04:00 +19°C° 0 mm 1 mps 683 mmHg 81%
    05:00 +19°C° 0 mm 1 mps 683 mmHg 82%
    06:00 +19°C° 0 mm 2 mps 683 mmHg 75%
    07:00 +21°C° 0 mm 2 mps 683 mmHg 69%
    08:00 +23°C° 0 mm 2 mps 684 mmHg 62%
    09:00 +24°C° 0.1 mm 3 mps 684 mmHg 57%
    10:00 +25°C° 0.1 mm 3 mps 684 mmHg 52%
    11:00 +27°C° 0.1 mm 3 mps 684 mmHg 47%
    12:00 +27°C° 0.2 mm 4 mps 684 mmHg 45%
    13:00 +28°C° 0.2 mm 5 mps 684 mmHg 42%
    14:00 +29°C° 0.2 mm 5 mps 683 mmHg 40%
    15:00 +28°C° 0.2 mm 5 mps 683 mmHg 41%
    16:00 +28°C° 0.2 mm 5 mps 683 mmHg 43%
    17:00 +27°C° 0.2 mm 6 mps 683 mmHg 44%
    18:00 +25°C° 0 mm 5 mps 683 mmHg 51%
    19:00 +23°C° 0 mm 4 mps 683 mmHg 57%
    20:00 +21°C° 0 mm 3 mps 683 mmHg 64%
    21:00 +20°C° 0 mm 2 mps 683 mmHg 67%
    22:00 +20°C° 0 mm 2 mps 683 mmHg 71%
    23:00 +20°C° 0 mm 1 mps 683 mmHg 74%

    Day after tomorrow, 23 June, Saturday

    Time Temperature Precipitation Wind Pressure Humidity
    00:00 +19°C° 0 mm 1 mps 683 mmHg 75%
    01:00 +19°C° 0 mm 1 mps 683 mmHg 77%
    02:00 +19°C° 0 mm 1 mps 683 mmHg 78%
    03:00 +18°C° 0 mm 1 mps 683 mmHg 78%
    04:00 +18°C° 0 mm 1 mps 683 mmHg 78%
    05:00 +18°C° 0 mm 1 mps 683 mmHg 78%
    06:00 +19°C° 0 mm 2 mps 683 mmHg 69%
    07:00 +20°C° 0 mm 2 mps 684 mmHg 59%
    08:00 +22°C° 0 mm 3 mps 684 mmHg 49%
    09:00 +24°C° 0 mm 3 mps 684 mmHg 44%
    10:00 +25°C° 0 mm 3 mps 684 mmHg 39%
    11:00 +26°C° 0 mm 3 mps 685 mmHg 34%
    12:00 +27°C° 0 mm 3 mps 685 mmHg 33%
    13:00 +28°C° 0 mm 3 mps 684 mmHg 32%
    14:00 +29°C° 0 mm 3 mps 684 mmHg 30%
    15:00 +28°C° 0.1 mm 4 mps 684 mmHg 34%
    16:00 +28°C° 0.1 mm 5 mps 684 mmHg 38%
    17:00 +27°C° 0.1 mm 5 mps 684 mmHg 42%
    18:00 +25°C° 0.1 mm 5 mps 684 mmHg 50%
    19:00 +22°C° 0.1 mm 4 mps 684 mmHg 58%
    20:00 +21°C° 0.1 mm 4 mps 684 mmHg 66%
    21:00 +20°C° 0 mm 3 mps 685 mmHg 69%
    22:00 +19°C° 0 mm 3 mps 685 mmHg 72%
    23:00 +19°C° 0 mm 2 mps 685 mmHg 75%

    24 June, Sunday

    Time Temperature Precipitation Wind Pressure Humidity
    00:00 +18°C° 0 mm 2 mps 685 mmHg 77%
    01:00 +18°C° 0 mm 2 mps 685 mmHg 78%
    02:00 +17°C° 0 mm 2 mps 685 mmHg 80%
    03:00 +17°C° 0 mm 2 mps 685 mmHg 81%
    04:00 +17°C° 0 mm 2 mps 685 mmHg 82%
    05:00 +17°C° 0 mm 2 mps 685 mmHg 83%
    06:00 +18°C° 0 mm 3 mps 685 mmHg 76%
    07:00 +20°C° 0 mm 3 mps 686 mmHg 69%
    08:00 +21°C° 0 mm 3 mps 686 mmHg 62%
    09:00 +22°C° 0.2 mm 3 mps 686 mmHg 58%
    10:00 +25°C° 0.2 mm 3 mps 686 mmHg 54%
    11:00 +26°C° 0.2 mm 3 mps 686 mmHg 49%
    12:00 +26°C° 0.2 mm 2 mps 686 mmHg 47%
    13:00 +27°C° 0.2 mm 2 mps 686 mmHg 45%
    14:00 +27°C° 0.2 mm 2 mps 686 mmHg 43%
    15:00 +27°C° 0.3 mm 2 mps 685 mmHg 45%
    16:00 +27°C° 0.3 mm 3 mps 685 mmHg 47%
    17:00 +26°C° 0.3 mm 3 mps 685 mmHg 49%
    18:00 +25°C° 0.3 mm 4 mps 686 mmHg 55%
    19:00 +23°C° 0.3 mm 4 mps 686 mmHg 61%
    20:00 +22°C° 0.3 mm 4 mps 686 mmHg 66%
    21:00 +21°C° 0 mm 4 mps 686 mmHg 70%
    22:00 +20°C° 0 mm 4 mps 686 mmHg 73%
    23:00 +19°C° 0 mm 4 mps 686 mmHg 76%

    25 June, Monday

    Time Temperature Precipitation Wind Pressure Humidity
    00:00 +19°C° 0 mm 3 mps 686 mmHg 78%
    01:00 +18°C° 0 mm 3 mps 686 mmHg 80%
    02:00 +18°C° 0 mm 2 mps 686 mmHg 82%
    03:00 +17°C° 0 mm 2 mps 686 mmHg 84%
    04:00 +17°C° 0 mm 2 mps 686 mmHg 85%
    05:00 +17°C° 0 mm 2 mps 686 mmHg 86%
    06:00 +18°C° 0 mm 2 mps 686 mmHg 78%
    07:00 +20°C° 0 mm 3 mps 686 mmHg 71%
    08:00 +21°C° 0 mm 3 mps 687 mmHg 63%
    09:00 +24°C° 0 mm 3 mps 687 mmHg 57%
    10:00 +25°C° 0 mm 4 mps 686 mmHg 52%
    11:00 +27°C° 0 mm 4 mps 686 mmHg 46%
    12:00 +28°C° 0 mm 4 mps 686 mmHg 43%
    13:00 +29°C° 0 mm 4 mps 686 mmHg 40%
    14:00 +30°C° 0 mm 4 mps 686 mmHg 37%
    15:00 +29°C° 0 mm 4 mps 685 mmHg 37%
    16:00 +29°C° 0 mm 4 mps 685 mmHg 38%
    17:00 +29°C° 0 mm 4 mps 685 mmHg 38%
    18:00 +28°C° 0 mm 4 mps 685 mmHg 45%
    19:00 +26°C° 0 mm 4 mps 685 mmHg 51%
    20:00 +23°C° 0 mm 4 mps 685 mmHg 58%
    21:00 +22°C° 0 mm 4 mps 685 mmHg 63%
    22:00 +21°C° 0 mm 3 mps 684 mmHg 68%
    23:00 +20°C° 0 mm 3 mps 684 mmHg 74%

    26 June, Tuesday

    Time Temperature Precipitation Wind Pressure Humidity
    00:00 +20°C° 0 mm 3 mps 684 mmHg 76%
    01:00 +19°C° 0 mm 2 mps 684 mmHg 78%
    02:00 +19°C° 0 mm 2 mps 684 mmHg 80%
    03:00 +18°C° 0 mm 2 mps 684 mmHg 82%
    04:00 +18°C° 0 mm 2 mps 684 mmHg 83%
    05:00 +18°C° 0 mm 2 mps 684 mmHg 85%
    06:00 +19°C° 0 mm 2 mps 684 mmHg 76%
    07:00 +21°C° 0 mm 2 mps 684 mmHg 67%
    08:00 +24°C° 0 mm 2 mps 684 mmHg 58%
    09:00 +25°C° 0 mm 2 mps 684 mmHg 51%
    10:00 +27°C° 0 mm 2 mps 684 mmHg 44%
    11:00 +29°C° 0 mm 2 mps 684 mmHg 38%
    12:00 +30°C° 0 mm 1 mps 684 mmHg 34%
    13:00 +31°C° 0 mm 1 mps 684 mmHg 31%
    14:00 +31°C° 0 mm 1 mps 683 mmHg 28%
    15:00 +32°C° 0 mm 1 mps 683 mmHg 28%
    16:00 +32°C° 0 mm 1 mps 683 mmHg 28%
    17:00 +32°C° 0 mm 1 mps 683 mmHg 27%
    18:00 +30°C° 0 mm 1 mps 683 mmHg 31%
    19:00 +28°C° 0 mm 2 mps 683 mmHg 36%
    20:00 +27°C° 0 mm 2 mps 683 mmHg 40%
    21:00 +26°C° 0 mm 2 mps 683 mmHg 42%
    22:00 +25°C° 0 mm 2 mps 683 mmHg 45%
    23:00 +24°C° 0 mm 2 mps 683 mmHg 47%
    Show more